Regional Weather Roundup
Issued by NWS

Home | Current Version | Previous Version | Graphics & Text | Print | Product List | Glossary On
Versions: 1 2 3 4 5 6 7 8 9 10 11 12 13 14 15 16 17 18 19 20 21 22 23 24 25 26 27
000
ASUS45 KSLC 241010
RWRUT

UTAH REGIONAL WEATHER ROUNDUP
NATIONAL WEATHER SERVICE SALT LAKE CITY UT
400 AM MDT TUE MAY 24 2016

UTZ001>011-023>025-241100-

NORTHERN UTAH

CITY           SKY/WX    TMP DP  RH WIND       PRES   REMARKS
BRIGHAM CITY     N/A     49  40  69 NW5       29.81S
HILL AFB       MOCLDY    52  33  49 E10       29.80S
LOGAN          MOCLDY    45  42  89 E3        29.84F
OGDEN          MOCLDY    50  43  77 NW7       29.79S
PROVO AIRPORT  CLOUDY    52  39  62 SE3       29.82S
SALT LAKE CITY MOCLDY    54  44  69 N8        29.80S
VERNAL         CLEAR     49  31  49 NW7       29.85F
WENDOVER       CLEAR     54  34  47 SW7       29.81S
HEBER CITY     MOCLDY    43  34  70 CALM      29.84S
WEST JORDAN    PTCLDY    50  37  62 CALM      29.81S

$$

UTZ012>022-026-027-241100-

SOUTHERN/CENTRAL UTAH

CITY           SKY/WX    TMP DP  RH WIND       PRES   REMARKS
BLANDING       CLEAR     44  22  40 NE9       29.99R
BRYCE CANYON   CLEAR     30  22  72 W6        29.96F WCI  24
CEDAR CITY     CLEAR     46  25  43 S5        29.85S
DELTA          MOCLDY    54  27  35 S8        29.80S
HANKSVILLE     PTCLDY    45  18  33 E3        29.81R
MILFORD        CLEAR     43  24  47 SW7       29.83S
MOAB/CYNLANDS  CLEAR     57  21  24 SE8       29.78R
PRICE          MOCLDY    50  19  29 N3        29.83S
ST GEORGE      PTSUNNY   63  21  20 SE5       29.78R
KANAB          CLEAR     39  27  60 NE5       29.90S

$$

REGIONAL REPORTS     COLORADO/ARIZONA

CITY           SKY/WX    TMP DP  RH WIND       PRES   REMARKS
CRAIG, CO      CLOUDY    34  30  85 CALM      29.93S
GRAND JUNCTION CLEAR     51  25  36 E14       29.82S
RIFLE          CLEAR     38  29  70 CALM      29.89S
MONTROSE       CLEAR     48  24  39 E7        29.92S
CORTEZ         CLEAR     38  25  59 NE5       29.96R WCI  34
PAGE, AZ       PTCLDY    61  22  22 S10       29.83S
GRAND CANYON   PTCLDY    36  20  52 SW3       29.95S
KINGMAN        CLEAR     60  28  29 S10       29.81S
FLAGSTAFF      CLEAR     34  21  59 CALM      29.97S

$$

REGIONAL REPORTS    NEVADA/IDAHO/WYOMING

CITY           SKY/WX    TMP DP  RH WIND       PRES   REMARKS
LAS VEGAS, NV  PTCLDY    65  37  35 S12G21    29.70R
ELY            CLOUDY    44  37  76 CALM      29.88F
ELKO           PTCLDY    47  39  74 E3        29.84S
POCATELLO, ID  CLOUDY    40  36  86 E3        29.86S
BURLEY         PTCLDY    43  40  89 CALM      29.84S
EVANSTON, WY   CLOUDY    42  30  62 E3        29.92S
ROCK SPRINGS   CLOUDY    41  34  76 CALM      29.94F
KEMMERER         N/A     34  28  80 N15       29.94F WCI  24

$$




USA.gov is the U.S. government's official web portal to all federal, state and local government web resources and services.